SWA1303 KPHX-KSEA

Flight info

Callsign SWA1303
Flight time 2h 38m
Altitude 36000
Route QUAKY1 GCN WINEN NEERO KOATA PDT CHINS5
Aircraft B738/M-SDE2E3FGHIRWXY/LB1

Departure

Time 2026-05-05 23:32
Airport Phoenix Sky Harbor International Airport (KPHX)

Arrival

Time 2026-05-06 02:11
Airport Seattle–Tacoma International Airport (KSEA)
Time Latitude Longitude Altitude Speed Heading
2026-05-05 22:59 33.43404 -111.99729 1134 ft 0 kts 79°
2026-05-05 23:24 33.43403 -111.99742 1135 ft 2 kts 84°
2026-05-05 23:24 33.43402 -111.99761 1131 ft 2 kts 99°
2026-05-05 23:24 33.43409 -111.99779 1133 ft 2 kts 158°
2026-05-05 23:24 33.43422 -111.99782 1131 ft 1 kts 180°
2026-05-05 23:25 33.43424 -111.99782 1131 ft 0 kts 181°
2026-05-05 23:28 33.43417 -111.99782 1131 ft 3 kts 180°
2026-05-05 23:28 33.43378 -111.99782 1132 ft 8 kts 180°
2026-05-05 23:28 33.43309 -111.99771 1132 ft 11 kts 150°
2026-05-05 23:28 33.43284 -111.99690 1130 ft 11 kts 92°
2026-05-05 23:29 33.43284 -111.99602 1131 ft 10 kts 90°
2026-05-05 23:29 33.43284 -111.99517 1131 ft 10 kts 90°
2026-05-05 23:29 33.43283 -111.99435 1132 ft 10 kts 90°
2026-05-05 23:29 33.43265 -111.99361 1134 ft 10 kts 139°
2026-05-05 23:30 33.43201 -111.99348 1134 ft 9 kts 179°
2026-05-05 23:30 33.43196 -111.99348 1134 ft 0 kts 179°
2026-05-05 23:30 33.43192 -111.99348 1135 ft 3 kts 179°
2026-05-05 23:31 33.43147 -111.99348 1137 ft 9 kts 181°
2026-05-05 23:31 33.43105 -111.99409 1135 ft 11 kts 266°
2026-05-05 23:31 33.43104 -111.99505 1134 ft 11 kts 270°
2026-05-05 23:31 33.43102 -111.99789 1134 ft 72 kts 269°
2026-05-05 23:32 33.43102 -112.00698 1132 ft 146 kts 269°
2026-05-05 23:32 33.43076 -112.02126 1411 ft 190 kts 269°
2026-05-05 23:32 33.43140 -112.03814 1959 ft 211 kts 271°
2026-05-05 23:32 33.43237 -112.05596 2715 ft 221 kts 271°
2026-05-05 23:33 33.43273 -112.07517 3316 ft 237 kts 267°
2026-05-05 23:33 33.43243 -112.09522 4116 ft 245 kts 268°
2026-05-05 23:33 33.43235 -112.11584 4972 ft 251 kts 269°
2026-05-05 23:33 33.43342 -112.13763 5588 ft 274 kts 275°
2026-05-05 23:34 33.43838 -112.16017 6474 ft 287 kts 290°
2026-05-05 23:34 33.44879 -112.18122 7237 ft 302 kts 307°
2026-05-05 23:34 33.46542 -112.19638 7545 ft 315 kts 335°
2026-05-05 23:34 33.48747 -112.20085 7722 ft 330 kts 359°
2026-05-05 23:35 33.51003 -112.19873 8220 ft 314 kts
2026-05-05 23:35 33.53092 -112.19495 8690 ft 301 kts
2026-05-05 23:35 33.55142 -112.18946 9151 ft 304 kts 10°
2026-05-05 23:35 33.57210 -112.18358 9929 ft 306 kts 11°
2026-05-05 23:36 33.59306 -112.17750 10498 ft 317 kts 11°
2026-05-05 23:36 33.61477 -112.16864 10677 ft 345 kts 28°
2026-05-05 23:36 33.63387 -112.14970 10879 ft 369 kts 45°
2026-05-05 23:36 33.65187 -112.12658 11038 ft 390 kts 47°
2026-05-05 23:37 33.67047 -112.10198 11407 ft 402 kts 47°
2026-05-05 23:37 33.68954 -112.07700 12009 ft 407 kts 46°
2026-05-05 23:37 33.70895 -112.05204 12628 ft 411 kts 46°
2026-05-05 23:37 33.72872 -112.02687 13227 ft 416 kts 45°
2026-05-05 23:38 33.75145 -112.00534 13808 ft 418 kts 26°
2026-05-05 23:38 33.77862 -111.99348 14391 ft 415 kts
2026-05-05 23:38 33.80707 -111.98792 15043 ft 415 kts
2026-05-05 23:38 33.83575 -111.98298 15638 ft 417 kts
2026-05-05 23:39 33.86456 -111.97804 16242 ft 420 kts
2026-05-05 23:39 33.89353 -111.97291 16802 ft 423 kts
2026-05-05 23:39 33.92274 -111.96756 17401 ft 425 kts
2026-05-05 23:39 33.95171 -111.96212 17908 ft 429 kts
2026-05-05 23:40 33.98141 -111.95648 18396 ft 433 kts
2026-05-05 23:40 34.01129 -111.95078 18814 ft 437 kts
2026-05-05 23:40 34.04152 -111.94502 19239 ft 442 kts
2026-05-05 23:40 34.07196 -111.93922 19683 ft 445 kts
2026-05-05 23:41 34.10274 -111.93522 20109 ft 444 kts 355°
2026-05-05 23:41 34.13360 -111.93756 20523 ft 444 kts 349°
2026-05-05 23:41 34.16440 -111.94166 20958 ft 446 kts 348°
2026-05-05 23:41 34.19549 -111.94603 21371 ft 450 kts 348°
2026-05-05 23:42 34.22669 -111.95017 21788 ft 454 kts 349°
2026-05-05 23:42 34.25824 -111.95402 22203 ft 457 kts 349°
2026-05-05 23:42 34.28999 -111.95764 22621 ft 459 kts 350°
2026-05-05 23:42 34.32193 -111.96115 23005 ft 462 kts 350°
2026-05-05 23:43 34.35409 -111.96466 23415 ft 465 kts 350°
2026-05-05 23:43 34.38591 -111.96814 23730 ft 467 kts 350°
2026-05-05 23:43 34.41888 -111.97179 24020 ft 471 kts 349°
2026-05-05 23:43 34.45123 -111.97538 24296 ft 474 kts 349°
2026-05-05 23:44 34.48414 -111.97902 24601 ft 476 kts 349°
2026-05-05 23:44 34.51724 -111.98269 24869 ft 479 kts 349°
2026-05-05 23:44 34.55060 -111.98638 25153 ft 482 kts 349°
2026-05-05 23:44 34.58417 -111.99009 25401 ft 485 kts 349°
2026-05-05 23:45 34.61160 -111.99313 25631 ft 487 kts 349°
2026-05-05 23:45 34.64539 -111.99686 25916 ft 489 kts 349°
2026-05-05 23:45 34.67936 -112.00062 26192 ft 491 kts 349°
2026-05-05 23:45 34.71353 -112.00441 26451 ft 494 kts 349°
2026-05-05 23:46 34.74786 -112.00822 26707 ft 496 kts 349°
2026-05-05 23:46 34.78227 -112.01205 26945 ft 498 kts 349°
2026-05-05 23:46 34.81690 -112.01594 27214 ft 500 kts 349°
2026-05-05 23:46 34.85108 -112.01979 27552 ft 500 kts 349°
2026-05-05 23:47 34.88578 -112.02369 27940 ft 499 kts 348°
2026-05-05 23:47 34.92033 -112.02759 28285 ft 499 kts 348°
2026-05-05 23:47 34.95492 -112.03149 28592 ft 499 kts 348°
2026-05-05 23:47 34.98950 -112.03540 28929 ft 499 kts 348°
2026-05-05 23:48 35.02410 -112.03930 29353 ft 497 kts 348°
2026-05-05 23:48 35.05857 -112.04320 29668 ft 498 kts 348°
2026-05-05 23:48 35.08144 -112.04579 29893 ft 498 kts 348°
2026-05-05 23:48 35.11592 -112.04969 30224 ft 498 kts 348°
2026-05-05 23:49 35.15045 -112.05360 30591 ft 496 kts 348°
2026-05-05 23:49 35.19589 -112.05874 31090 ft 494 kts 348°
2026-05-05 23:49 35.23008 -112.06262 31384 ft 493 kts 348°
2026-05-05 23:49 35.25317 -112.06525 31554 ft 494 kts 348°
2026-05-05 23:50 35.28742 -112.06916 31825 ft 494 kts 348°
2026-05-05 23:50 35.32155 -112.07304 32135 ft 493 kts 348°
2026-05-05 23:50 35.35567 -112.07693 32442 ft 492 kts 348°
2026-05-05 23:50 35.38972 -112.08064 32714 ft 492 kts 348°
2026-05-05 23:51 35.42393 -112.08403 32999 ft 492 kts 349°
2026-05-05 23:51 35.45759 -112.08725 33291 ft 491 kts 349°
2026-05-05 23:51 35.49161 -112.09055 33547 ft 491 kts 348°
2026-05-05 23:51 35.52579 -112.09393 33789 ft 491 kts 348°
2026-05-05 23:52 35.55979 -112.09754 34032 ft 491 kts 348°
2026-05-05 23:52 35.59377 -112.10156 34267 ft 490 kts 347°
2026-05-05 23:52 35.62773 -112.10574 34498 ft 489 kts 347°
2026-05-05 23:52 35.66157 -112.10993 34737 ft 488 kts 348°
2026-05-05 23:53 35.69538 -112.11408 34997 ft 487 kts 348°
2026-05-05 23:53 35.72910 -112.11818 35270 ft 485 kts 348°
2026-05-05 23:53 35.76262 -112.12221 35541 ft 484 kts 348°
2026-05-05 23:53 35.79611 -112.12624 35737 ft 484 kts 348°
2026-05-05 23:54 35.82965 -112.13028 35919 ft 483 kts 348°
2026-05-05 23:54 35.86317 -112.13432 35964 ft 484 kts 348°
2026-05-05 23:54 35.92979 -112.14235 35965 ft 483 kts 348°
2026-05-05 23:55 35.96308 -112.14918 35948 ft 473 kts 335°
2026-05-05 23:55 35.99225 -112.16516 35994 ft 461 kts 326°
2026-05-05 23:55 36.04836 -112.20323 35966 ft 459 kts 325°
2026-05-05 23:56 36.10412 -112.24166 35942 ft 459 kts 326°
2026-05-05 23:56 36.16030 -112.27981 35900 ft 464 kts 326°
2026-05-05 23:57 36.21735 -112.31817 35871 ft 468 kts 327°
2026-05-05 23:57 36.27467 -112.35664 35829 ft 468 kts 327°
2026-05-05 23:58 36.33156 -112.39485 35825 ft 462 kts 327°
2026-05-05 23:58 36.38784 -112.43277 35821 ft 459 kts 328°
2026-05-05 23:59 36.44353 -112.47038 35815 ft 458 kts 328°
2026-05-05 23:59 36.49943 -112.50821 35832 ft 458 kts 329°
2026-05-06 00:00 36.55539 -112.54612 35808 ft 458 kts 329°
2026-05-06 00:00 36.61144 -112.58417 35810 ft 459 kts 330°
2026-05-06 00:01 36.66756 -112.62230 35790 ft 460 kts 330°
2026-05-06 00:01 36.72382 -112.66062 35796 ft 461 kts 330°
2026-05-06 00:02 36.78021 -112.69909 35818 ft 462 kts 331°
2026-05-06 00:02 36.83636 -112.73745 35847 ft 463 kts 331°
2026-05-06 00:03 36.89284 -112.77610 35880 ft 463 kts 332°
2026-05-06 00:03 36.94944 -112.81490 35895 ft 463 kts 332°
2026-05-06 00:04 37.00585 -112.85364 35913 ft 462 kts 333°
2026-05-06 00:04 37.06219 -112.89240 35910 ft 461 kts 333°
2026-05-06 00:05 37.14648 -112.95048 35876 ft 460 kts 333°
2026-05-06 00:06 37.20236 -112.98907 35856 ft 459 kts 333°
2026-05-06 00:06 37.25792 -113.02752 35835 ft 457 kts 333°
2026-05-06 00:07 37.31355 -113.06609 35823 ft 456 kts 333°
2026-05-06 00:07 37.36906 -113.10463 35823 ft 455 kts 333°
2026-05-06 00:08 37.42440 -113.14313 35834 ft 454 kts 334°
2026-05-06 00:08 37.47971 -113.18166 35853 ft 453 kts 334°
2026-05-06 00:09 37.53475 -113.22008 35870 ft 452 kts 334°
2026-05-06 00:09 37.58980 -113.25856 35874 ft 452 kts 334°
2026-05-06 00:10 37.64477 -113.29705 35862 ft 451 kts 334°
2026-05-06 00:10 37.69945 -113.33541 35863 ft 451 kts 334°
2026-05-06 00:11 37.75429 -113.37395 35843 ft 450 kts 334°
2026-05-06 00:11 37.80901 -113.41247 35817 ft 450 kts 335°
2026-05-06 00:12 37.86354 -113.45092 35785 ft 449 kts 335°
2026-05-06 00:12 37.91807 -113.48944 35772 ft 448 kts 334°
2026-05-06 00:13 37.96866 -113.53627 35777 ft 453 kts 324°
2026-05-06 00:13 38.01637 -113.58859 35771 ft 453 kts 323°
2026-05-06 00:14 38.06365 -113.64068 35768 ft 453 kts 324°
2026-05-06 00:14 38.11137 -113.69279 35781 ft 452 kts 324°
2026-05-06 00:15 38.15923 -113.74480 35787 ft 452 kts 324°
2026-05-06 00:15 38.20706 -113.79680 35783 ft 452 kts 324°
2026-05-06 00:16 38.25476 -113.84875 35785 ft 452 kts 324°
2026-05-06 00:16 38.30252 -113.90088 35788 ft 452 kts 324°
2026-05-06 00:17 38.35019 -113.95301 35788 ft 451 kts 324°
2026-05-06 00:17 38.39770 -114.00506 35787 ft 450 kts 324°
2026-05-06 00:18 38.44482 -114.05677 35786 ft 449 kts 325°
2026-05-06 00:18 38.49212 -114.10877 35787 ft 448 kts 325°
2026-05-06 00:19 38.53929 -114.16072 35783 ft 448 kts 325°
2026-05-06 00:19 38.58646 -114.21277 35785 ft 447 kts 325°
2026-05-06 00:20 38.63343 -114.26469 35787 ft 446 kts 325°
2026-05-06 00:20 38.68005 -114.31632 35795 ft 444 kts 325°
2026-05-06 00:21 38.72675 -114.36812 35792 ft 443 kts 325°
2026-05-06 00:21 38.77355 -114.42014 35798 ft 442 kts 325°
2026-05-06 00:22 38.81996 -114.47180 35809 ft 441 kts 325°
2026-05-06 00:22 38.86598 -114.52312 35814 ft 441 kts 325°
2026-05-06 00:23 38.91228 -114.57484 35817 ft 441 kts 325°
2026-05-06 00:23 38.95845 -114.62651 35831 ft 441 kts 325°
2026-05-06 00:24 39.00468 -114.67835 35847 ft 441 kts 325°
2026-05-06 00:24 39.05086 -114.73024 35880 ft 440 kts 325°
2026-05-06 00:25 39.09697 -114.78213 35924 ft 439 kts 325°
2026-05-06 00:25 39.14268 -114.83367 35955 ft 439 kts 325°
2026-05-06 00:26 39.18861 -114.88553 35976 ft 439 kts 325°
2026-05-06 00:26 39.23446 -114.93741 35983 ft 439 kts 325°
2026-05-06 00:27 39.28030 -114.98937 35974 ft 438 kts 325°
2026-05-06 00:27 39.32609 -115.04138 35955 ft 438 kts 324°
2026-05-06 00:28 39.37177 -115.09335 35927 ft 437 kts 325°
2026-05-06 00:28 39.41735 -115.14530 35890 ft 436 kts 325°
2026-05-06 00:29 39.46277 -115.19717 35862 ft 434 kts 325°
2026-05-06 00:29 39.50790 -115.24880 35835 ft 432 kts 325°
2026-05-06 00:30 39.55294 -115.30041 35830 ft 432 kts 325°
2026-05-06 00:30 39.59755 -115.35161 35832 ft 431 kts 325°
2026-05-06 00:31 39.64233 -115.40311 35833 ft 430 kts 325°
2026-05-06 00:31 39.68713 -115.45470 35823 ft 430 kts 325°
2026-05-06 00:32 39.73198 -115.50646 35841 ft 431 kts 325°
2026-05-06 00:32 39.77689 -115.55838 35836 ft 432 kts 325°
2026-05-06 00:33 39.82178 -115.61039 35836 ft 432 kts 325°
2026-05-06 00:33 39.86667 -115.66248 35839 ft 433 kts 325°
2026-05-06 00:34 39.91179 -115.71493 35846 ft 435 kts 325°
2026-05-06 00:34 39.95667 -115.76720 35845 ft 436 kts 325°
2026-05-06 00:35 40.00196 -115.82005 35845 ft 437 kts 325°
2026-05-06 00:35 40.04727 -115.87303 35841 ft 438 kts 325°
2026-05-06 00:36 40.09260 -115.92615 35845 ft 437 kts 325°
2026-05-06 00:36 40.13047 -115.97060 35844 ft 437 kts 325°
2026-05-06 00:37 40.17535 -116.02334 35839 ft 436 kts 324°
2026-05-06 00:37 40.22036 -116.07634 35845 ft 435 kts 324°
2026-05-06 00:38 40.26529 -116.12935 35840 ft 434 kts 324°
2026-05-06 00:38 40.31006 -116.18226 35844 ft 433 kts 324°
2026-05-06 00:39 40.35471 -116.23514 35841 ft 432 kts 324°
2026-05-06 00:39 40.39922 -116.28793 35841 ft 431 kts 324°
2026-05-06 00:40 40.44364 -116.34072 35826 ft 431 kts 324°
2026-05-06 00:40 40.48806 -116.39361 35841 ft 430 kts 324°
2026-05-06 00:41 40.53231 -116.44641 35844 ft 430 kts 324°
2026-05-06 00:41 40.57653 -116.49925 35846 ft 430 kts 324°
2026-05-06 00:42 40.62062 -116.55204 35869 ft 430 kts 324°
2026-05-06 00:42 40.66487 -116.60512 35880 ft 430 kts 324°
2026-05-06 00:43 40.70909 -116.65826 35879 ft 431 kts 324°
2026-05-06 00:43 40.75338 -116.71160 35878 ft 431 kts 324°
2026-05-06 00:44 40.79770 -116.76507 35874 ft 432 kts 324°
2026-05-06 00:44 40.84206 -116.81868 35858 ft 432 kts 324°
2026-05-06 00:45 40.88633 -116.87230 35845 ft 432 kts 324°
2026-05-06 00:45 40.93024 -116.92559 35828 ft 431 kts 324°
2026-05-06 00:46 40.97437 -116.97925 35814 ft 430 kts 324°
2026-05-06 00:46 41.01837 -117.03284 35810 ft 430 kts 324°
2026-05-06 00:47 41.06234 -117.08649 35813 ft 429 kts 324°
2026-05-06 00:47 41.10610 -117.14000 35816 ft 428 kts 324°
2026-05-06 00:48 41.14983 -117.19356 35817 ft 427 kts 324°
2026-05-06 00:48 41.19349 -117.24713 35823 ft 427 kts 324°
2026-05-06 00:49 41.23710 -117.30074 35823 ft 427 kts 324°
2026-05-06 00:49 41.28031 -117.35398 35829 ft 426 kts 324°
2026-05-06 00:50 41.32380 -117.40766 35831 ft 426 kts 324°
2026-05-06 00:50 41.36721 -117.46135 35840 ft 426 kts 323°
2026-05-06 00:51 41.41051 -117.51499 35835 ft 425 kts 323°
2026-05-06 00:51 41.45389 -117.56883 35844 ft 425 kts 323°
2026-05-06 00:52 41.49717 -117.62266 35849 ft 426 kts 323°
2026-05-06 00:52 41.54046 -117.67660 35817 ft 425 kts 323°
2026-05-06 00:53 41.58343 -117.73033 35861 ft 423 kts 323°
2026-05-06 00:53 41.62648 -117.78413 35843 ft 424 kts 323°
2026-05-06 00:54 41.66954 -117.83808 35845 ft 425 kts 323°
2026-05-06 00:54 41.71239 -117.89189 35843 ft 426 kts 323°
2026-05-06 00:55 41.75554 -117.94619 35841 ft 426 kts 323°
2026-05-06 00:55 41.79892 -118.00057 35849 ft 425 kts 326°
2026-05-06 00:56 41.84761 -118.04292 35848 ft 413 kts 341°
2026-05-06 00:56 41.90059 -118.07271 35870 ft 412 kts 342°
2026-05-06 00:57 41.95366 -118.10229 35862 ft 413 kts 342°
2026-05-06 00:57 42.00639 -118.13205 35867 ft 414 kts 341°
2026-05-06 00:58 42.05950 -118.16228 35877 ft 414 kts 341°
2026-05-06 00:58 42.11257 -118.19260 35876 ft 415 kts 341°
2026-05-06 00:59 42.16562 -118.22298 35874 ft 414 kts 341°
2026-05-06 00:59 42.21866 -118.25341 35874 ft 414 kts 341°
2026-05-06 01:00 42.27167 -118.28387 35876 ft 413 kts 341°
2026-05-06 01:00 42.32457 -118.31433 35873 ft 413 kts 341°
2026-05-06 01:01 42.37728 -118.34472 35877 ft 412 kts 341°
2026-05-06 01:01 42.42993 -118.37514 35886 ft 411 kts 341°
2026-05-06 01:02 42.48217 -118.40538 35886 ft 410 kts 341°
2026-05-06 01:02 42.53460 -118.43578 35881 ft 409 kts 341°
2026-05-06 01:03 42.58690 -118.46616 35888 ft 409 kts 341°
2026-05-06 01:03 42.63917 -118.49658 35895 ft 408 kts 341°
2026-05-06 01:04 42.69135 -118.52700 35880 ft 408 kts 341°
2026-05-06 01:04 42.74353 -118.55748 35903 ft 409 kts 341°
2026-05-06 01:05 42.79599 -118.58817 35899 ft 410 kts 341°
2026-05-06 01:05 42.84848 -118.61895 35902 ft 412 kts 341°
2026-05-06 01:06 42.90085 -118.64970 35915 ft 413 kts 341°
2026-05-06 01:06 42.95375 -118.68083 35912 ft 414 kts 340°
2026-05-06 01:07 43.00675 -118.71209 35897 ft 415 kts 340°
2026-05-06 01:07 43.05980 -118.74343 35887 ft 414 kts 340°
2026-05-06 01:08 43.11267 -118.77472 35894 ft 413 kts 340°
2026-05-06 01:08 43.16548 -118.80604 35874 ft 413 kts 340°
2026-05-06 01:09 43.21776 -118.83710 35883 ft 412 kts 340°
2026-05-06 01:09 43.27043 -118.86845 35891 ft 411 kts 340°
2026-05-06 01:10 43.32285 -118.89971 35906 ft 411 kts 340°
2026-05-06 01:10 43.37529 -118.93104 35922 ft 410 kts 340°
2026-05-06 01:11 43.42836 -118.95882 35943 ft 406 kts 349°
2026-05-06 01:11 43.48398 -118.96839 35966 ft 402 kts
2026-05-06 01:12 43.53954 -118.96749 35971 ft 402 kts
2026-05-06 01:12 43.59547 -118.96635 35975 ft 402 kts
2026-05-06 01:13 43.65144 -118.96544 35974 ft 403 kts
2026-05-06 01:13 43.70790 -118.96467 35962 ft 403 kts
2026-05-06 01:14 43.79171 -118.96362 35949 ft 404 kts
2026-05-06 01:14 43.84801 -118.96292 35933 ft 404 kts
2026-05-06 01:15 43.90430 -118.96222 35929 ft 404 kts
2026-05-06 01:15 43.96059 -118.96151 35915 ft 405 kts
2026-05-06 01:16 44.01663 -118.96080 35923 ft 405 kts
2026-05-06 01:16 44.07293 -118.96009 35921 ft 405 kts
2026-05-06 01:17 44.12940 -118.95938 35931 ft 405 kts
2026-05-06 01:17 44.18592 -118.95866 35929 ft 405 kts
2026-05-06 01:18 44.24193 -118.95796 35934 ft 405 kts
2026-05-06 01:18 44.29842 -118.95724 35928 ft 405 kts
2026-05-06 01:19 44.35474 -118.95653 35929 ft 404 kts
2026-05-06 01:19 44.41083 -118.95582 35936 ft 403 kts
2026-05-06 01:20 44.46690 -118.95509 35936 ft 403 kts
2026-05-06 01:20 44.52260 -118.95437 35936 ft 402 kts
2026-05-06 01:21 44.57853 -118.95366 35927 ft 402 kts
2026-05-06 01:21 44.63450 -118.95294 35931 ft 401 kts
2026-05-06 01:22 44.69037 -118.95223 35941 ft 401 kts
2026-05-06 01:22 44.74628 -118.95150 35940 ft 402 kts
2026-05-06 01:23 44.80233 -118.95078 35930 ft 403 kts
2026-05-06 01:23 44.85839 -118.95005 35936 ft 403 kts
2026-05-06 01:24 44.91442 -118.94932 35947 ft 403 kts
2026-05-06 01:24 44.96108 -118.94872 35949 ft 403 kts
2026-05-06 01:25 45.02622 -118.94787 35951 ft 402 kts
2026-05-06 01:25 45.08235 -118.94713 35952 ft 403 kts
2026-05-06 01:26 45.12928 -118.94652 35947 ft 403 kts
2026-05-06 01:26 45.18544 -118.94579 35934 ft 403 kts
2026-05-06 01:27 45.24121 -118.94505 35937 ft 403 kts
2026-05-06 01:27 45.29738 -118.94431 35928 ft 403 kts
2026-05-06 01:28 45.35348 -118.94358 35934 ft 403 kts
2026-05-06 01:28 45.40963 -118.94283 35931 ft 404 kts
2026-05-06 01:29 45.46585 -118.94209 35924 ft 404 kts
2026-05-06 01:29 45.52208 -118.94134 35917 ft 404 kts
2026-05-06 01:30 45.57819 -118.94060 35923 ft 403 kts
2026-05-06 01:30 45.63393 -118.93986 35929 ft 403 kts
2026-05-06 01:31 45.68878 -118.95254 35946 ft 405 kts 339°
2026-05-06 01:31 45.71373 -118.97179 35925 ft 410 kts 328°
2026-05-06 01:31 45.73522 -118.99895 35920 ft 417 kts 317°
2026-05-06 01:32 45.77304 -119.06240 35884 ft 419 kts 315°
2026-05-06 01:32 45.80984 -119.12636 35882 ft 419 kts 315°
2026-05-06 01:33 45.84711 -119.19033 35883 ft 418 kts 315°
2026-05-06 01:33 45.88472 -119.25431 35884 ft 418 kts 315°
2026-05-06 01:34 45.92228 -119.31815 35883 ft 418 kts 315°
2026-05-06 01:34 45.95982 -119.38210 35880 ft 419 kts 315°
2026-05-06 01:35 45.99737 -119.44624 35883 ft 419 kts 315°
2026-05-06 01:35 46.03485 -119.51042 35875 ft 419 kts 315°
2026-05-06 01:36 46.07210 -119.57435 35874 ft 420 kts 315°
2026-05-06 01:36 46.10959 -119.63884 35878 ft 420 kts 315°
2026-05-06 01:37 46.13469 -119.68211 35875 ft 421 kts 315°
2026-05-06 01:40 46.14732 -119.70390 35871 ft 421 kts 315°
2026-05-06 01:40 46.18489 -119.76881 35868 ft 421 kts 315°
2026-05-06 01:41 46.22242 -119.83387 35865 ft 422 kts 314°
2026-05-06 01:41 46.25976 -119.89880 35868 ft 422 kts 314°
2026-05-06 01:42 46.29729 -119.96419 35873 ft 422 kts 314°
2026-05-06 01:42 46.33477 -120.02966 35864 ft 422 kts 314°
2026-05-06 01:43 46.37225 -120.09529 35869 ft 422 kts 314°
2026-05-06 01:43 46.40965 -120.16093 35875 ft 422 kts 314°
2026-05-06 01:44 46.44704 -120.22672 35874 ft 422 kts 314°
2026-05-06 01:44 46.48439 -120.29258 35877 ft 423 kts 314°
2026-05-06 01:45 46.50317 -120.32574 35582 ft 429 kts 314°
2026-05-06 01:45 46.52226 -120.35949 35104 ft 432 kts 314°
2026-05-06 01:45 46.54123 -120.39312 34647 ft 430 kts 313°
2026-05-06 01:45 46.56011 -120.42661 34197 ft 428 kts 313°
2026-05-06 01:46 46.57852 -120.46017 33739 ft 431 kts 311°
2026-05-06 01:46 46.59613 -120.49563 33237 ft 433 kts 309°
2026-05-06 01:46 46.61318 -120.53175 32738 ft 435 kts 308°
2026-05-06 01:46 46.63017 -120.56825 32263 ft 437 kts 308°
2026-05-06 01:47 46.64729 -120.60492 31768 ft 438 kts 308°
2026-05-06 01:47 46.66453 -120.64157 31297 ft 439 kts 308°
2026-05-06 01:47 46.68189 -120.67828 30831 ft 440 kts 308°
2026-05-06 01:47 46.69928 -120.71494 30361 ft 441 kts 308°
2026-05-06 01:48 46.71677 -120.75175 29878 ft 443 kts 308°
2026-05-06 01:48 46.73436 -120.78884 29330 ft 445 kts 308°
2026-05-06 01:48 46.75195 -120.82598 28792 ft 447 kts 308°
2026-05-06 01:48 46.76962 -120.86332 28262 ft 448 kts 308°
2026-05-06 01:49 46.78735 -120.90086 27750 ft 450 kts 308°
2026-05-06 01:49 46.80511 -120.93851 27254 ft 451 kts 308°
2026-05-06 01:49 46.82294 -120.97641 26772 ft 452 kts 308°
2026-05-06 01:49 46.84080 -121.01439 26285 ft 453 kts 308°
2026-05-06 01:50 46.85869 -121.05247 25808 ft 454 kts 308°
2026-05-06 01:50 46.87654 -121.09052 25334 ft 455 kts 308°
2026-05-06 01:50 46.89445 -121.12875 24860 ft 455 kts 308°
2026-05-06 01:50 46.91222 -121.16678 24395 ft 449 kts 308°
2026-05-06 01:51 46.92972 -121.20431 23944 ft 442 kts 308°
2026-05-06 01:51 46.94695 -121.24129 23481 ft 436 kts 308°
2026-05-06 01:51 46.96352 -121.27690 22947 ft 421 kts 308°
2026-05-06 01:51 46.97962 -121.31158 22448 ft 402 kts 308°
2026-05-06 01:52 46.99504 -121.34481 21975 ft 386 kts 308°
2026-05-06 01:52 47.00986 -121.37674 21546 ft 372 kts 308°
2026-05-06 01:52 47.02415 -121.40753 21132 ft 358 kts 308°
2026-05-06 01:52 47.03795 -121.43726 20745 ft 348 kts 308°
2026-05-06 01:53 47.05142 -121.46636 20351 ft 340 kts 308°
2026-05-06 01:53 47.06460 -121.49483 19988 ft 338 kts 308°
2026-05-06 01:53 47.07790 -121.52357 19649 ft 344 kts 308°
2026-05-06 01:53 47.09136 -121.55272 19306 ft 346 kts 308°
2026-05-06 01:54 47.10485 -121.58202 18954 ft 344 kts 308°
2026-05-06 01:54 47.11821 -121.61109 18604 ft 342 kts 308°
2026-05-06 01:54 47.13150 -121.64002 18259 ft 341 kts 308°
2026-05-06 01:54 47.14470 -121.66879 17866 ft 340 kts 307°
2026-05-06 01:55 47.15792 -121.69761 17460 ft 339 kts 307°
2026-05-06 01:55 47.17091 -121.72597 17100 ft 338 kts 307°
2026-05-06 01:55 47.18402 -121.75460 16714 ft 337 kts 307°
2026-05-06 01:55 47.19706 -121.78311 16341 ft 336 kts 307°
2026-05-06 01:56 47.21012 -121.81169 15987 ft 336 kts 307°
2026-05-06 01:56 47.22313 -121.84022 15622 ft 334 kts 307°
2026-05-06 01:56 47.23546 -121.86728 15242 ft 332 kts 306°
2026-05-06 01:56 47.24052 -121.87839 15125 ft 330 kts 306°
2026-05-06 01:57 47.24618 -121.89082 14976 ft 329 kts 306°
2026-05-06 01:57 47.25697 -121.91455 14676 ft 327 kts 306°
2026-05-06 01:58 47.25990 -121.92099 14598 ft 326 kts 306°
2026-05-06 01:58 47.27229 -121.94827 14523 ft 315 kts 306°
2026-05-06 01:59 47.28444 -121.97502 14129 ft 315 kts 306°
2026-05-06 01:59 47.29659 -122.00179 13745 ft 314 kts 306°
2026-05-06 01:59 47.30873 -122.02857 13338 ft 314 kts 306°
2026-05-06 01:59 47.32084 -122.05530 12928 ft 314 kts 306°
2026-05-06 02:00 47.33293 -122.08202 12529 ft 313 kts 306°
2026-05-06 02:00 47.34499 -122.10871 12120 ft 313 kts 305°
2026-05-06 02:00 47.35697 -122.13524 11626 ft 308 kts 305°
2026-05-06 02:00 47.36966 -122.16022 11123 ft 302 kts 319°
2026-05-06 02:01 47.38733 -122.17586 10659 ft 295 kts 341°
2026-05-06 02:01 47.40726 -122.18152 10184 ft 290 kts 356°
2026-05-06 02:01 47.42758 -122.18318 9688 ft 287 kts 357°
2026-05-06 02:01 47.44718 -122.18413 9181 ft 284 kts 358°
2026-05-06 02:02 47.46692 -122.18483 8688 ft 281 kts 358°
2026-05-06 02:02 47.48639 -122.18549 8195 ft 280 kts 358°
2026-05-06 02:02 47.50585 -122.18619 7700 ft 278 kts 358°
2026-05-06 02:02 47.52507 -122.18701 7222 ft 276 kts 358°
2026-05-06 02:03 47.54423 -122.18789 6780 ft 273 kts 358°
2026-05-06 02:03 47.56319 -122.18890 6369 ft 270 kts 357°
2026-05-06 02:03 47.58185 -122.18996 5931 ft 267 kts 357°
2026-05-06 02:03 47.60035 -122.19101 5518 ft 263 kts 357°
2026-05-06 02:04 47.61828 -122.19201 5126 ft 259 kts 358°
2026-05-06 02:04 47.63617 -122.19304 4724 ft 255 kts 357°
2026-05-06 02:04 47.65379 -122.19411 4352 ft 251 kts 358°
2026-05-06 02:04 47.67113 -122.19498 4029 ft 246 kts 356°
2026-05-06 02:05 47.68715 -122.20218 3675 ft 242 kts 323°
2026-05-06 02:05 47.69737 -122.22127 3423 ft 234 kts 293°
2026-05-06 02:05 47.70052 -122.24385 3344 ft 216 kts 269°
2026-05-06 02:05 47.69733 -122.26500 3312 ft 211 kts 246°
2026-05-06 02:06 47.68876 -122.28233 3326 ft 213 kts 224°
2026-05-06 02:06 47.67627 -122.29411 3296 ft 215 kts 200°
2026-05-06 02:06 47.66175 -122.29983 3301 ft 216 kts 193°
2026-05-06 02:06 47.64704 -122.30436 3295 ft 215 kts 192°
2026-05-06 02:07 47.63246 -122.30879 3290 ft 213 kts 192°
2026-05-06 02:07 47.61788 -122.31328 3314 ft 216 kts 192°
2026-05-06 02:07 47.60309 -122.31742 3215 ft 218 kts 187°
2026-05-06 02:07 47.58791 -122.31791 3008 ft 214 kts 179°
2026-05-06 02:08 47.57373 -122.31712 2745 ft 200 kts 178°
2026-05-06 02:08 47.56025 -122.31626 2563 ft 190 kts 180°
2026-05-06 02:08 47.54703 -122.31591 2365 ft 192 kts 180°
2026-05-06 02:08 47.53346 -122.31567 1990 ft 193 kts 181°
2026-05-06 02:09 47.52058 -122.31626 1748 ft 176 kts 184°
2026-05-06 02:09 47.50881 -122.31699 1476 ft 163 kts 182°
2026-05-06 02:09 47.49798 -122.31720 1225 ft 150 kts 181°
2026-05-06 02:09 47.48753 -122.31730 968 ft 150 kts 182°
2026-05-06 02:10 47.47702 -122.31769 744 ft 154 kts 182°
2026-05-06 02:10 47.46640 -122.31778 472 ft 153 kts 181°
2026-05-06 02:10 47.45936 -122.31781 385 ft 144 kts 181°
2026-05-06 02:10 47.45094 -122.31796 383 ft 93 kts 181°
2026-05-06 02:11 47.44641 -122.31761 383 ft 24 kts 162°
2026-05-06 02:11 47.44547 -122.31706 383 ft 20 kts 153°
2026-05-06 02:11 47.44458 -122.31634 383 ft 14 kts 150°
2026-05-06 02:11 47.44377 -122.31564 383 ft 13 kts 150°
2026-05-06 02:12 47.44301 -122.31493 383 ft 13 kts 140°
2026-05-06 02:12 47.44247 -122.31391 383 ft 12 kts 115°
2026-05-06 02:12 47.44220 -122.31271 383 ft 12 kts 106°
2026-05-06 02:12 47.44171 -122.31127 383 ft 12 kts 130°
2026-05-06 02:13 47.44130 -122.31073 383 ft 12 kts 144°
2026-05-06 02:13 47.44061 -122.31014 383 ft 11 kts 150°
2026-05-06 02:13 47.43994 -122.30958 383 ft 11 kts 149°
2026-05-06 02:13 47.43935 -122.30893 383 ft 11 kts 131°
2026-05-06 02:14 47.43904 -122.30795 383 ft 11 kts 99°
2026-05-06 02:14 47.43910 -122.30688 383 ft 10 kts 68°
2026-05-06 02:14 47.43967 -122.30629 383 ft 10 kts 31°
2026-05-06 02:14 47.43992 -122.30540 383 ft 10 kts 89°
2026-05-06 02:15 47.43992 -122.30441 383 ft 10 kts 89°
2026-05-06 02:15 47.43999 -122.30344 383 ft 9 kts 76°
2026-05-06 02:15 47.44026 -122.30259 383 ft 9 kts 57°
2026-05-06 02:15 47.44051 -122.30177 383 ft 9 kts 82°
2026-05-06 02:16 47.44053 -122.30095 383 ft 8 kts 60°
2026-05-06 02:16 47.44082 -122.30047 383 ft 6 kts 45°
2026-05-06 02:16 47.44092 -122.30032 383 ft 0 kts 47°
2026-05-06 02:22 47.44849 -122.18418 9148 ft 284 kts 358°
2026-05-06 02:23 47.59420 -122.19065 5650 ft 0 kts 357°
2026-05-06 02:23 33.43404 -111.99729 1122 ft 0 kts 79°
2026-05-06 02:26 47.59941 -122.19095 5477 ft 258 kts 356°
2026-05-06 02:26 47.61794 -122.19298 2969 ft 287 kts 352°
2026-05-06 02:27 33.43404 -111.99729 1122 ft 0 kts 79°